Miscellaneous Local Product
Issued by NWS North Platte, NE

Home | Current Version | Previous Version | Text Only | Print | Product List | Glossary On
Versions: 1 2 3 4 5 6 7 8 9 10 11 12 13 14 15 16 17 18 19 20 21 22 23 24 25 26 27 28 29 30 31 32 33 34 35 36 37 38 39 40 41 42 43 44 45 46 47 48 49 50
000
AXUS43 KLBF 290810
MISLBF


WESTERN AND NORTH CENTRAL NEBRASKA HOURLY WEATHER ROUNDUP
NATIONAL WEATHER SERVICE NORTH PLATTE NE
300 AM CDT WED MAR 29 2017

NOTE: "FAIR" INDICATES FEW OR NO CLOUDS BELOW 12,000 FEET WITH NO
SIGNIFICANT WEATHER AND/OR OBSTRUCTIONS TO VISIBILITY.

NOTE: STATIONS NOT REPORTING VARIABLES SUCH AS SKY/WEATHER OR
PRESSURE ARE PROVIDED BY RAWS AND APRS NETWORKS AND ARE NOT UNDER
NATIONAL WEATHER SERVICE QUALITY CONTROL.

...OBSERVATIONS IN AND NEAR THE EASTERN PANHANDLE OF NEBRASKA...

CITY           SKY/WX    TMP DP  RH WIND       PRES   REMARKS
PINE RIDGE     CLOUDY    42  41  96 CALM      30.13S
CHADRON        CLOUDY    41  38  89 CALM      30.13S
ALLIANCE       CLOUDY    38  36  92 CALM      30.11R
SIDNEY         CLOUDY    37  35  92 NE9       30.08F WCI  30
CRESCENT LAKE    N/A     37  37 100 N3          N/A
$$

...OBSERVATIONS IN NORTHERN NEBRASKA AND FAR SOUTHERN SOUTH DAKOTA...

CITY           SKY/WX    TMP DP  RH WIND       PRES   REMARKS
WINNER         LGT RAIN  44  42  93 CALM      30.15R
VALENTINE      LGT RAIN  42  39  89 NE3       30.13S FOG
THEDFORD       CLOUDY    42  41  97 NE3       30.10S
AINSWORTH      DRIZZLE   42  42 100 N7        30.12S
O`NEILL        CLOUDY    46  44  91 CALM      30.12S
ORD            CLOUDY    44  41  89 N6        30.07F
BROKEN BOW     LGT RAIN  44  42  93 N7        30.07F
VALENTINE NWR    N/A     41  41  99 NE3         N/A
HALSEY           N/A     42  42 100 NE5         N/A
BUTTE            N/A     43  40  91 NW6         N/A
CHAMBERS         N/A     44  42  91 CALM        N/A
EWING            N/A     44  42  93 CALM        N/A
$$

...OBSERVATIONS IN SOUTHWEST NEBRASKA AND FAR NORTHEAST COLORADO...

CITY           SKY/WX    TMP DP  RH WIND       PRES   REMARKS
WRAY           DRIZZLE  N/A N/A N/A NE12      30.05
HOLYOKE        DRIZZLE   41  37  87 NE9       30.06F
IMPERIAL       LGT RAIN  41  39  93 NE12      30.05F
OGALLALA       CLOUDY    42  41  94 NE9       30.06F
NORTH PLATTE   LGT RAIN  44  41  89 NE10      30.06F
MCCOOK         LGT RAIN  42  42 100 NE14      30.02S FOG
LEXINGTON      DRIZZLE   43  41  93 NE10      30.04F
STAPLETON        N/A     41  40  96 NE3         N/A
GOTHENBURG       N/A     43  41  92 N7          N/A
CALLAWAY         N/A     42  41  98 NE7         N/A
$$

...OBSERVATIONS IN CENTRAL LINCOLN COUNTY AREA...

CITY           SKY/WX    TMP DP  RH WIND       PRES   REMARKS
N.P. AIRPORT   LGT RAIN  44  41  89 NE10      30.06F
N.P. DOWNTOWN    N/A     43  42  95 NE8         N/A
N.P. SOUTHEAST   N/A     42  40  94 N5G14       N/A
N.P. HILLCREST   N/A     42  41  96 NE13        N/A
$$

...SOME OBSERVATIONS FROM AROUND THE REGION...

CITY           SKY/WX    TMP DP  RH WIND       PRES   REMARKS
DENVER         LGT RAIN  35  34  96 NE10      30.07S VSB 1/4 WCI  27
LIMON          FLURRIES  33  33 100 N9        30.03R WCI  25
ASPEN          CLOUDY    34  29  82 CALM      30.01S
LARAMIE        CLOUDY    33  32  96 N10       30.08S WCI  25
CASPER         PTCLDY    30  28  92 W5        30.13F WCI  25
CHEYENNE       CLOUDY    34  33  96 N10       30.08S WCI  26
SCOTTSBLUFF    CLOUDY    40  37  89 VRB5      30.12S
GRAND ISLAND   CLOUDY    43  43 100 NE12      30.05F FOG
OMAHA          LGT RAIN  48  42  80 NE13      30.06F
SIOUX FALLS    MOCLDY    42  37  82 NE6       30.14F
PIERRE         LGT RAIN  45  42  89 N7        30.14S
RAPID CITY     CLOUDY    41  40  96 S6        30.12R
BISMARCK       CLOUDY    44  40  85 CALM      30.14F
KANSAS CITY    TSTM      52  49  89 NE20      29.93F FOG
HILL CITY      LGT RAIN  43  43 100 N18G25    29.95F FOG
WICHITA        LGT RAIN  51  51 100 N22G32    29.75F
DODGE CITY     LGT RAIN  44  44 100 N17G26    29.86R FOG
OKLAHOMA CITY  TSTM      52  51  97 NW18      29.74F FOG
DALLAS         TSTM      61  59  93 W20G30    29.72  FOG
AMARILLO       LGT RAIN  44  44 100 NE23G36   29.64F VSB 1
$$




USA.gov is the U.S. government's official web portal to all federal, state and local government web resources and services.